• In Lithuania
  • List of Countries
  • For 7 days
  • Water Temperature
  • Satellite Maps
  • Weather Map
  • Weather Widgets
  • user-avatar
    Login

    Hourly Weather Sozopol

    Today, 24 October, Tuesday

    Time Temperature Precipitation Wind Pressure Humidity
    00:00 +17°C° 0 mm 4 mps 748 mmHg 69%
    01:00 +18°C° 0 mm 4 mps 748 mmHg 69%
    02:00 +18°C° 0 mm 4 mps 748 mmHg 69%
    03:00 +17°C° 0.5 mm 4 mps 748 mmHg 73%
    04:00 +16°C° 0.5 mm 5 mps 748 mmHg 78%
    05:00 +16°C° 0.5 mm 5 mps 747 mmHg 82%
    06:00 +16°C° 0.5 mm 6 mps 748 mmHg 80%
    07:00 +17°C° 0.5 mm 6 mps 748 mmHg 79%
    08:00 +17°C° 0.5 mm 7 mps 748 mmHg 77%
    09:00 +18°C° 0.1 mm 7 mps 749 mmHg 72%
    10:00 +20°C° 0.1 mm 7 mps 749 mmHg 67%
    11:00 +21°C° 0.1 mm 7 mps 749 mmHg 61%
    12:00 +21°C° 0.2 mm 7 mps 749 mmHg 61%
    13:00 +21°C° 0.2 mm 7 mps 750 mmHg 60%
    14:00 +21°C° 0.2 mm 7 mps 750 mmHg 59%
    15:00 +20°C° 0.4 mm 6 mps 750 mmHg 63%
    16:00 +20°C° 0.4 mm 6 mps 751 mmHg 67%
    17:00 +19°C° 0.4 mm 6 mps 751 mmHg 72%
    18:00 +17°C° 0.7 mm 6 mps 751 mmHg 75%
    19:00 +17°C° 0.7 mm 5 mps 752 mmHg 79%
    20:00 +16°C° 0.7 mm 5 mps 753 mmHg 82%
    21:00 +16°C° 0.7 mm 5 mps 753 mmHg 84%
    22:00 +16°C° 0.7 mm 5 mps 754 mmHg 85%
    23:00 +15°C° 0.7 mm 5 mps 754 mmHg 86%

    Tomorrow, 25 October, Wednesday

    Time Temperature Precipitation Wind Pressure Humidity
    00:00 +15°C° 0.7 mm 6 mps 755 mmHg 87%
    01:00 +16°C° 0.7 mm 6 mps 755 mmHg 87%
    02:00 +16°C° 0.7 mm 7 mps 756 mmHg 87%
    03:00 +15°C° 1.9 mm 8 mps 756 mmHg 87%
    04:00 +15°C° 1.9 mm 9 mps 756 mmHg 88%
    05:00 +13°C° 1.9 mm 9 mps 757 mmHg 88%
    06:00 +12°C° 2.4 mm 10 mps 757 mmHg 88%
    07:00 +11°C° 2.4 mm 10 mps 758 mmHg 88%
    08:00 +9°C° 2.4 mm 11 mps 759 mmHg 87%
    09:00 +9°C° 0.4 mm 11 mps 759 mmHg 86%
    10:00 +9°C° 0.4 mm 11 mps 760 mmHg 85%
    11:00 +8°C° 0.4 mm 11 mps 760 mmHg 84%
    12:00 +8°C° 0.2 mm 11 mps 761 mmHg 83%
    13:00 +8°C° 0.2 mm 10 mps 761 mmHg 83%
    14:00 +8°C° 0.2 mm 10 mps 761 mmHg 82%
    15:00 +7°C° 0.1 mm 10 mps 762 mmHg 82%
    16:00 +7°C° 0.1 mm 10 mps 762 mmHg 83%
    17:00 +7°C° 0.1 mm 10 mps 762 mmHg 83%
    18:00 +7°C° 0.2 mm 10 mps 763 mmHg 82%
    19:00 +7°C° 0.2 mm 10 mps 764 mmHg 81%
    20:00 +7°C° 0.2 mm 10 mps 764 mmHg 81%
    21:00 +7°C° 0.3 mm 9 mps 765 mmHg 79%
    22:00 +7°C° 0.3 mm 9 mps 765 mmHg 78%
    23:00 +7°C° 0.3 mm 9 mps 765 mmHg 77%

    Day after tomorrow, 26 October, Thursday

    Time Temperature Precipitation Wind Pressure Humidity
    00:00 +7°C° 0.1 mm 8 mps 765 mmHg 78%
    01:00 +6°C° 0.1 mm 8 mps 766 mmHg 78%
    02:00 +6°C° 0.1 mm 7 mps 766 mmHg 79%
    03:00 +6°C° 0 mm 7 mps 766 mmHg 80%
    04:00 +5°C° 0 mm 7 mps 766 mmHg 82%
    05:00 +5°C° 0 mm 6 mps 766 mmHg 83%
    06:00 +5°C° 0 mm 6 mps 767 mmHg 81%
    07:00 +7°C° 0 mm 6 mps 767 mmHg 79%
    08:00 +7°C° 0 mm 6 mps 767 mmHg 77%
    09:00 +9°C° 0 mm 5 mps 767 mmHg 73%
    10:00 +10°C° 0 mm 5 mps 767 mmHg 68%
    11:00 +13°C° 0 mm 5 mps 767 mmHg 63%
    12:00 +14°C° 0 mm 4 mps 767 mmHg 61%
    13:00 +16°C° 0 mm 3 mps 767 mmHg 58%
    14:00 +16°C° 0 mm 3 mps 766 mmHg 56%
    15:00 +15°C° 0 mm 2 mps 766 mmHg 60%
    16:00 +15°C° 0 mm 2 mps 766 mmHg 65%
    17:00 +14°C° 0 mm 2 mps 766 mmHg 69%
    18:00 +13°C° 0 mm 1 mps 766 mmHg 72%
    19:00 +12°C° 0 mm 1 mps 766 mmHg 75%
    20:00 +11°C° 0 mm 1 mps 766 mmHg 77%
    21:00 +11°C° 0 mm 1 mps 766 mmHg 78%
    22:00 +11°C° 0 mm 1 mps 766 mmHg 79%
    23:00 +11°C° 0 mm 1 mps 766 mmHg 79%

    27 October, Friday

    Time Temperature Precipitation Wind Pressure Humidity
    00:00 +11°C° 0 mm 1 mps 765 mmHg 80%
    01:00 +11°C° 0 mm 1 mps 765 mmHg 81%
    02:00 +10°C° 0 mm 1 mps 765 mmHg 82%
    03:00 +10°C° 0 mm 1 mps 764 mmHg 83%
    04:00 +9°C° 0 mm 2 mps 764 mmHg 83%
    05:00 +9°C° 0 mm 2 mps 763 mmHg 84%
    06:00 +10°C° 0 mm 2 mps 763 mmHg 82%
    07:00 +10°C° 0 mm 2 mps 763 mmHg 79%
    08:00 +12°C° 0 mm 2 mps 763 mmHg 76%
    09:00 +14°C° 0 mm 2 mps 763 mmHg 69%
    10:00 +16°C° 0 mm 2 mps 762 mmHg 61%
    11:00 +18°C° 0 mm 2 mps 762 mmHg 54%
    12:00 +19°C° 0 mm 2 mps 761 mmHg 51%
    13:00 +20°C° 0 mm 2 mps 760 mmHg 49%
    14:00 +20°C° 0 mm 2 mps 760 mmHg 46%
    15:00 +19°C° 0 mm 2 mps 759 mmHg 51%
    16:00 +18°C° 0 mm 3 mps 759 mmHg 56%
    17:00 +17°C° 0 mm 3 mps 758 mmHg 60%
    18:00 +16°C° 0 mm 3 mps 758 mmHg 63%
    19:00 +14°C° 0 mm 3 mps 758 mmHg 65%
    20:00 +13°C° 0 mm 3 mps 757 mmHg 67%
    21:00 +13°C° 0 mm 3 mps 757 mmHg 67%
    22:00 +13°C° 0 mm 3 mps 756 mmHg 68%
    23:00 +12°C° 0 mm 3 mps 756 mmHg 68%

    28 October, Saturday

    Time Temperature Precipitation Wind Pressure Humidity
    00:00 +12°C° 0 mm 3 mps 755 mmHg 68%
    01:00 +12°C° 0 mm 3 mps 755 mmHg 67%
    02:00 +12°C° 0 mm 3 mps 754 mmHg 67%
    03:00 +12°C° 0 mm 3 mps 754 mmHg 67%
    04:00 +12°C° 0 mm 3 mps 753 mmHg 67%
    05:00 +12°C° 0 mm 3 mps 753 mmHg 67%
    06:00 +12°C° 0 mm 3 mps 752 mmHg 67%
    07:00 +13°C° 0 mm 3 mps 752 mmHg 66%
    08:00 +13°C° 0 mm 3 mps 752 mmHg 66%
    09:00 +14°C° 0 mm 3 mps 752 mmHg 62%
    10:00 +17°C° 0 mm 4 mps 752 mmHg 58%
    11:00 +18°C° 0 mm 4 mps 752 mmHg 54%
    12:00 +17°C° 0 mm 5 mps 752 mmHg 56%
    13:00 +16°C° 0 mm 6 mps 752 mmHg 59%
    14:00 +16°C° 0 mm 8 mps 752 mmHg 61%
    15:00 +15°C° 0.2 mm 7 mps 753 mmHg 65%
    16:00 +12°C° 0.2 mm 7 mps 753 mmHg 68%
    17:00 +11°C° 0.2 mm 7 mps 753 mmHg 72%
    18:00 +11°C° 0.3 mm 6 mps 754 mmHg 74%
    19:00 +10°C° 0.3 mm 5 mps 754 mmHg 77%
    20:00 +11°C° 0.3 mm 4 mps 755 mmHg 79%
    21:00 +11°C° 0.1 mm 4 mps 755 mmHg 79%
    22:00 +10°C° 0.1 mm 4 mps 755 mmHg 79%
    23:00 +10°C° 0.1 mm 4 mps 755 mmHg 79%

    29 October, Sunday

    Time Temperature Precipitation Wind Pressure Humidity
    00:00 +10°C° 0 mm 4 mps 755 mmHg 79%
    01:00 +10°C° 0 mm 4 mps 755 mmHg 78%
    02:00 +10°C° 0 mm 3 mps 755 mmHg 78%
    03:00 +9°C° 0 mm 3 mps 755 mmHg 78%
    04:00 +9°C° 0 mm 3 mps 754 mmHg 78%
    05:00 +9°C° 0 mm 2 mps 754 mmHg 78%
    06:00 +9°C° 0.1 mm 2 mps 754 mmHg 78%
    07:00 +9°C° 0.1 mm 2 mps 754 mmHg 78%
    08:00 +9°C° 0.1 mm 2 mps 754 mmHg 78%
    09:00 +10°C° 0.3 mm 2 mps 754 mmHg 77%
    10:00 +10°C° 0.3 mm 3 mps 753 mmHg 77%
    11:00 +10°C° 0.3 mm 3 mps 753 mmHg 76%
    12:00 +10°C° 0.8 mm 4 mps 752 mmHg 77%
    13:00 +10°C° 0.8 mm 4 mps 752 mmHg 78%
    14:00 +9°C° 0.8 mm 5 mps 751 mmHg 79%
    15:00 +8°C° 1.7 mm 6 mps 750 mmHg 81%
    16:00 +8°C° 1.7 mm 6 mps 750 mmHg 82%
    17:00 +8°C° 1.7 mm 7 mps 749 mmHg 84%
    18:00 +8°C° 1.4 mm 7 mps 749 mmHg 83%
    19:00 +7°C° 1.4 mm 8 mps 749 mmHg 83%
    20:00 +7°C° 1.4 mm 8 mps 749 mmHg 83%
    21:00 +7°C° 1 mm 8 mps 749 mmHg 83%
    22:00 +7°C° 1 mm 8 mps 750 mmHg 83%
    23:00 +7°C° 1 mm 8 mps 750 mmHg 82%

    30 October, Monday

    Time Temperature Precipitation Wind Pressure Humidity
    00:00 +7°C° 0.5 mm 8 mps 750 mmHg 82%
    01:00 +8°C° 0.5 mm 7 mps 750 mmHg 81%
    02:00 +6°C° 0.5 mm 7 mps 751 mmHg 81%
    03:00 +6°C° 0.1 mm 7 mps 751 mmHg 81%
    04:00 +6°C° 0.1 mm 7 mps 752 mmHg 82%
    05:00 +5°C° 0.1 mm 6 mps 752 mmHg 82%
    06:00 +5°C° 0 mm 6 mps 753 mmHg 81%
    07:00 +5°C° 0 mm 6 mps 753 mmHg 79%
    08:00 +7°C° 0 mm 6 mps 754 mmHg 78%
    09:00 +8°C° 0 mm 6 mps 754 mmHg 72%
    10:00 +9°C° 0 mm 6 mps 755 mmHg 66%
    11:00 +10°C° 0 mm 6 mps 755 mmHg 61%
    12:00 +11°C° 0 mm 6 mps 755 mmHg 57%
    13:00 +13°C° 0 mm 5 mps 755 mmHg 54%
    14:00 +13°C° 0 mm 5 mps 755 mmHg 50%
    15:00 +13°C° 0 mm 4 mps 755 mmHg 54%
    16:00 +12°C° 0 mm 4 mps 756 mmHg 57%
    17:00 +11°C° 0 mm 4 mps 756 mmHg 60%
    18:00 +10°C° 0 mm 4 mps 756 mmHg 61%
    19:00 +10°C° 0 mm 4 mps 757 mmHg 62%
    20:00 +8°C° 0 mm 4 mps 757 mmHg 63%
    21:00 +8°C° 0 mm 4 mps 757 mmHg 64%
    22:00 +8°C° 0 mm 4 mps 757 mmHg 64%
    23:00 +8°C° 0 mm 5 mps 757 mmHg 65%
    Show more